Météo par heure à Jurow

Ce jour, 20 Juin, Dimanche

Heure Température Précipitation Vent Pression Humidité
00:00 +18°C° 0 mm 2 m/s 742 mmHg 92%
01:00 +17°C° 0 mm 2 m/s 742 mmHg 92%
02:00 +18°C° 0 mm 1 m/s 742 mmHg 92%
03:00 +17°C° 0 mm 2 m/s 742 mmHg 92%
04:00 +16°C° 0 mm 2 m/s 741 mmHg 92%
05:00 +16°C° 0 mm 2 m/s 741 mmHg 93%
06:00 +18°C° 0 mm 2 m/s 741 mmHg 89%
07:00 +20°C° 0 mm 3 m/s 741 mmHg 84%
08:00 +21°C° 0 mm 3 m/s 741 mmHg 80%
09:00 +22°C° 0 mm 3 m/s 741 mmHg 77%
10:00 +25°C° 0 mm 3 m/s 741 mmHg 74%
11:00 +26°C° 0 mm 3 m/s 741 mmHg 71%
12:00 +26°C° 0 mm 3 m/s 741 mmHg 69%
13:00 +27°C° 0 mm 4 m/s 741 mmHg 67%
14:00 +28°C° 0 mm 4 m/s 740 mmHg 65%
15:00 +27°C° 0.2 mm 4 m/s 740 mmHg 68%
16:00 +27°C° 0.2 mm 4 m/s 740 mmHg 70%
17:00 +27°C° 0.2 mm 4 m/s 740 mmHg 73%
18:00 +26°C° 0.9 mm 4 m/s 739 mmHg 77%
19:00 +24°C° 0.9 mm 3 m/s 739 mmHg 82%
20:00 +22°C° 0.9 mm 3 m/s 739 mmHg 86%
21:00 +21°C° 0 mm 3 m/s 739 mmHg 89%
22:00 +20°C° 0 mm 3 m/s 739 mmHg 91%
23:00 +19°C° 0 mm 3 m/s 739 mmHg 94%

Demain, 21 Juin, Lundi

Heure Température Précipitation Vent Pression Humidité
00:00 +19°C° 0 mm 3 m/s 739 mmHg 94%
01:00 +19°C° 0 mm 3 m/s 738 mmHg 95%
02:00 +18°C° 0 mm 2 m/s 738 mmHg 96%
03:00 +18°C° 0 mm 2 m/s 738 mmHg 96%
04:00 +18°C° 0 mm 2 m/s 738 mmHg 96%
05:00 +17°C° 0 mm 2 m/s 738 mmHg 97%
06:00 +19°C° 0 mm 3 m/s 738 mmHg 93%
07:00 +20°C° 0 mm 3 m/s 738 mmHg 89%
08:00 +21°C° 0 mm 4 m/s 738 mmHg 85%
09:00 +23°C° 0 mm 4 m/s 738 mmHg 79%
10:00 +25°C° 0 mm 4 m/s 738 mmHg 74%
11:00 +26°C° 0 mm 4 m/s 738 mmHg 68%
12:00 +27°C° 0.1 mm 4 m/s 738 mmHg 66%
13:00 +27°C° 0.1 mm 4 m/s 738 mmHg 65%
14:00 +28°C° 0.1 mm 3 m/s 737 mmHg 63%
15:00 +28°C° 0 mm 3 m/s 737 mmHg 64%
16:00 +28°C° 0 mm 3 m/s 737 mmHg 65%
17:00 +28°C° 0 mm 3 m/s 737 mmHg 67%
18:00 +26°C° 0 mm 3 m/s 737 mmHg 73%
19:00 +25°C° 0 mm 3 m/s 737 mmHg 79%
20:00 +24°C° 0 mm 3 m/s 737 mmHg 85%
21:00 +22°C° 0 mm 3 m/s 737 mmHg 87%
22:00 +21°C° 0 mm 3 m/s 737 mmHg 90%
23:00 +20°C° 0 mm 3 m/s 737 mmHg 93%

Après-demain, 22 Juin, Mardi

Heure Température Précipitation Vent Pression Humidité
00:00 +20°C° 0 mm 3 m/s 737 mmHg 93%
01:00 +19°C° 0 mm 3 m/s 737 mmHg 94%
02:00 +19°C° 0 mm 2 m/s 737 mmHg 94%
03:00 +19°C° 0 mm 2 m/s 737 mmHg 94%
04:00 +19°C° 0 mm 2 m/s 737 mmHg 95%
05:00 +19°C° 0 mm 2 m/s 737 mmHg 95%
06:00 +20°C° 0 mm 3 m/s 737 mmHg 89%
07:00 +22°C° 0 mm 3 m/s 737 mmHg 84%
08:00 +24°C° 0 mm 3 m/s 738 mmHg 78%
09:00 +26°C° 0 mm 3 m/s 738 mmHg 74%
10:00 +27°C° 0 mm 3 m/s 738 mmHg 70%
11:00 +28°C° 0 mm 3 m/s 738 mmHg 66%
12:00 +29°C° 0 mm 3 m/s 738 mmHg 64%
13:00 +29°C° 0 mm 3 m/s 738 mmHg 61%
14:00 +30°C° 0 mm 3 m/s 738 mmHg 59%
15:00 +30°C° 0.1 mm 3 m/s 738 mmHg 61%
16:00 +30°C° 0.1 mm 3 m/s 738 mmHg 62%
17:00 +30°C° 0.1 mm 3 m/s 738 mmHg 64%
18:00 +28°C° 0.3 mm 3 m/s 738 mmHg 71%
19:00 +27°C° 0.3 mm 3 m/s 738 mmHg 77%
20:00 +25°C° 0.3 mm 3 m/s 738 mmHg 83%
21:00 +24°C° 0.1 mm 2 m/s 738 mmHg 85%
22:00 +24°C° 0.1 mm 2 m/s 739 mmHg 87%
23:00 +23°C° 0.1 mm 1 m/s 739 mmHg 90%

23 Juin, Mercredi

Heure Température Précipitation Vent Pression Humidité
00:00 +22°C° 0 mm 1 m/s 739 mmHg 90%
01:00 +22°C° 0 mm 1 m/s 739 mmHg 91%
02:00 +21°C° 0 mm 2 m/s 739 mmHg 92%
03:00 +22°C° 0 mm 1 m/s 739 mmHg 92%
04:00 +21°C° 0 mm 1 m/s 739 mmHg 92%
05:00 +21°C° 0 mm 1 m/s 739 mmHg 92%
06:00 +23°C° 0 mm 1 m/s 740 mmHg 87%
07:00 +24°C° 0 mm 2 m/s 740 mmHg 83%
08:00 +26°C° 0 mm 2 m/s 740 mmHg 79%
09:00 +27°C° 0 mm 2 m/s 740 mmHg 74%
10:00 +28°C° 0 mm 2 m/s 741 mmHg 69%
11:00 +29°C° 0 mm 2 m/s 741 mmHg 65%
12:00 +30°C° 0 mm 2 m/s 741 mmHg 62%
13:00 +31°C° 0 mm 2 m/s 741 mmHg 59%
14:00 +31°C° 0 mm 2 m/s 741 mmHg 56%
15:00 +31°C° 0 mm 2 m/s 741 mmHg 57%
16:00 +31°C° 0 mm 2 m/s 741 mmHg 58%
17:00 +31°C° 0 mm 2 m/s 741 mmHg 59%
18:00 +30°C° 0.1 mm 2 m/s 741 mmHg 66%
19:00 +28°C° 0.1 mm 2 m/s 741 mmHg 72%
20:00 +27°C° 0.1 mm 2 m/s 741 mmHg 79%
21:00 +26°C° 0 mm 2 m/s 741 mmHg 81%
22:00 +25°C° 0 mm 1 m/s 741 mmHg 83%
23:00 +24°C° 0 mm 1 m/s 741 mmHg 85%

24 Juin, Jeudi

Heure Température Précipitation Vent Pression Humidité
00:00 +24°C° 0 mm 1 m/s 741 mmHg 85%
01:00 +24°C° 0 mm 1 m/s 741 mmHg 86%
02:00 +21°C° 0 mm 0 m/s 741 mmHg 87%
03:00 +21°C° 0 mm 0 m/s 741 mmHg 87%
04:00 +21°C° 0 mm 0 m/s 741 mmHg 87%
05:00 +21°C° 0 mm 0 m/s 741 mmHg 88%
06:00 +22°C° 0 mm 0 m/s 741 mmHg 84%
07:00 +24°C° 0 mm 0 m/s 741 mmHg 81%
08:00 +25°C° 0 mm 0 m/s 741 mmHg 77%
09:00 +28°C° 0 mm 1 m/s 741 mmHg 73%
10:00 +29°C° 0 mm 1 m/s 741 mmHg 68%
11:00 +30°C° 0 mm 1 m/s 741 mmHg 64%
12:00 +31°C° 0.1 mm 1 m/s 741 mmHg 60%
13:00 +32°C° 0.1 mm 1 m/s 741 mmHg 57%
14:00 +32°C° 0.1 mm 1 m/s 741 mmHg 54%
15:00 +32°C° 0 mm 2 m/s 740 mmHg 55%
16:00 +32°C° 0 mm 2 m/s 740 mmHg 56%
17:00 +32°C° 0 mm 2 m/s 740 mmHg 57%
18:00 +30°C° 0.2 mm 2 m/s 739 mmHg 64%
19:00 +29°C° 0.2 mm 3 m/s 739 mmHg 72%
20:00 +27°C° 0.2 mm 3 m/s 739 mmHg 80%
21:00 +26°C° 0.5 mm 3 m/s 739 mmHg 83%
22:00 +24°C° 0.5 mm 3 m/s 739 mmHg 86%
23:00 +22°C° 0.5 mm 3 m/s 739 mmHg 89%

25 Juin, Vendredi

Heure Température Précipitation Vent Pression Humidité
00:00 +21°C° 1 mm 2 m/s 739 mmHg 91%
01:00 +20°C° 1 mm 2 m/s 739 mmHg 93%
02:00 +19°C° 1 mm 2 m/s 739 mmHg 96%
03:00 +19°C° 0 mm 2 m/s 738 mmHg 95%
04:00 +20°C° 0 mm 2 m/s 738 mmHg 95%
05:00 +20°C° 0 mm 2 m/s 737 mmHg 95%
06:00 +21°C° 0 mm 2 m/s 737 mmHg 91%
07:00 +23°C° 0 mm 2 m/s 737 mmHg 87%
08:00 +25°C° 0 mm 2 m/s 737 mmHg 83%
09:00 +26°C° 0 mm 3 m/s 737 mmHg 77%
10:00 +28°C° 0 mm 3 m/s 737 mmHg 72%
11:00 +29°C° 0 mm 4 m/s 738 mmHg 67%
12:00 +29°C° 0.1 mm 4 m/s 738 mmHg 66%
13:00 +30°C° 0.1 mm 5 m/s 737 mmHg 64%
14:00 +30°C° 0.1 mm 5 m/s 737 mmHg 63%
15:00 +29°C° 0.1 mm 5 m/s 737 mmHg 65%
16:00 +29°C° 0.1 mm 5 m/s 737 mmHg 67%
17:00 +29°C° 0.1 mm 5 m/s 737 mmHg 68%
18:00 +27°C° 0 mm 4 m/s 737 mmHg 73%
19:00 +26°C° 0 mm 3 m/s 737 mmHg 77%
20:00 +24°C° 0 mm 2 m/s 738 mmHg 82%
21:00 +24°C° 0 mm 2 m/s 738 mmHg 83%
22:00 +23°C° 0 mm 2 m/s 738 mmHg 85%
23:00 +21°C° 0 mm 3 m/s 739 mmHg 86%
Voir plus

Nous avons besoin de votre consentement

Meteoprog et ses fournisseurs de services peuvent stocker et accéder à des données personnelles telles que des cookies, des identifiants d'appareils ou d'autres technologies similaires sur votre appareil et traiter ces données pour personnaliser le contenu et les publicités, ainsi que pour fournir des fonctionnalités de médias sociaux et analyser le trafic.

  • Stocker et/ou accéder à des informations sur votre appareil

    Des cookies, des identifiants d'appareils ou d'autres informations peuvent être stockés ou accessibles sur votre appareil aux fins indiquées ci-dessus.

  • Annonces et contenus personnalisés, mesure des annonces et des contenus, connaissance de l'audience et développement de produits

    Les annonces et le contenu peuvent être personnalisés en fonction d'un profil. D'autres données peuvent être ajoutées pour mieux personnaliser les annonces et le contenu. Les performances des publicités et du contenu peuvent être mesurées. Il est possible d'obtenir des informations sur le public qui a vu les publicités et le contenu. Ces données peuvent être utilisées pour développer ou améliorer l'expérience de l'utilisateur, les systèmes et les logiciels.

En cliquant sur "J'accepte", vous autorisez l'utilisation de cookies, des identifiants d'appareils, des balises web ou d'autres technologies similaires. Vos paramètres peuvent être modifiés dans le navigateur de votre appareil.

Dans certains cas, des intérêts légitimes peuvent être invoqués plutôt qu'un consentement. Vous pouvez en savoir plus à ce sujet dans notre Politique de confidentialité et de cookies.